Millville, NJ

12:09 PM EDT on September 28, 2016 (GMT -0400)
Millville Municipal

Weather History for KMIV - November, 2013

Change the Weather History Date:

Tuesday, November 5, 2013

  Actual Average Record
Temperature  
Mean Temperature 48 °F -  
Max Temperature 59 °F 59 °F 78 °F (1975)
Min Temperature 36 °F 39 °F 24 °F (1966)
Degree Days  
Heating Degree Days 18    
Moisture  
Dew Point 40 °F    
Average Humidity 76    
Maximum Humidity 97    
Minimum Humidity 53    
Precipitation  
Precipitation 0.00 in - - ()
Sea Level Pressure  
Sea Level Pressure 30.56 in    
Wind  
Wind Speed 3 mph (East)    
Max Wind Speed 9 mph    
Max Gust Speed -    
Visibility 10 miles    
Events      
Averages and records for this station are not official NWS values.
T = Trace of Precipitation, MM = Missing Value Source: NWS Daily Summary

Daily Weather History Graph

Daily Weather History Graph

Search for Another Location

Airport or City:

Trip Planner

Search our weather history database for the weather conditions in past years. The results will help you decide how hot, cold, wet, or windy it might be!

Date:

Astronomy

Nov. 05, 2013 Rise Set
Actual Time 6:32 AM EST 4:54 PM EST
Civil Twilight 6:04 AM EST 5:22 PM EST
Nautical Twilight 5:32 AM EST 5:54 PM EST
Astronomical Twilight 5:01 AM EST 6:25 PM EST
Moon 8:45 AM EST (11/5) 6:53 PM EST (11/5)
Length of Visible Light 11h 17m
Length of Day
10h 21m
Waxing Crescent, 6% of the Moon is Illuminated
Nov 5
Waxing Crescent
Nov 10
First Quarter
Nov 17
Full
Nov 25
Last Quarter
Dec 2
New

Hourly Weather History & Observations

Time (EST) Temp. Windchill Dew Point Humidity Pressure Visibility Wind Dir Wind Speed Gust Speed Precip Events Conditions
12:54 AM 36.0 °F - 30.9 °F 82% 30.61 in 10.0 mi Calm Calm - N/A   Clear
1:54 AM 37.9 °F 35.5 °F 32.0 °F 79% 30.59 in 10.0 mi NE 3.5 mph - N/A   Clear
2:54 AM 39.0 °F - 33.1 °F 79% 30.58 in 10.0 mi Calm Calm - N/A   Clear
3:54 AM 39.9 °F - 33.1 °F 77% 30.58 in 10.0 mi Calm Calm - N/A   Clear
4:54 AM 37.0 °F - 33.1 °F 86% 30.58 in 10.0 mi Calm Calm - N/A   Clear
5:54 AM 39.0 °F 35.7 °F 34.0 °F 82% 30.60 in 10.0 mi North 4.6 mph - N/A   Clear
6:54 AM 37.0 °F 34.5 °F 34.0 °F 89% 30.60 in 10.0 mi North 3.5 mph - N/A   Clear
7:54 AM 44.1 °F 40.8 °F 37.9 °F 79% 30.61 in 10.0 mi ENE 5.8 mph - N/A   Clear
8:54 AM 50.0 °F - 39.9 °F 68% 30.61 in 10.0 mi East 3.5 mph - N/A   Clear
9:54 AM 55.0 °F - 42.1 °F 62% 30.61 in 10.0 mi East 6.9 mph - N/A   Clear
10:54 AM 57.0 °F - 43.0 °F 59% 30.60 in 10.0 mi East 8.1 mph - N/A   Scattered Clouds
11:54 AM 59.0 °F - 42.1 °F 53% 30.59 in 2.5 mi East 5.8 mph - N/A   Haze
12:04 PM 59.0 °F - 42.8 °F 55% 30.58 in 10.0 mi East 9.2 mph - N/A   Overcast
12:54 PM 57.9 °F - 43.0 °F 58% 30.56 in 10.0 mi East 6.9 mph - N/A   Partly Cloudy
1:54 PM 57.9 °F - 44.1 °F 60% 30.55 in 10.0 mi ESE 9.2 mph - N/A   Mostly Cloudy
2:54 PM 57.9 °F - 44.1 °F 60% 30.54 in 10.0 mi SE 6.9 mph - N/A   Mostly Cloudy
3:54 PM 55.9 °F - 43.0 °F 62% 30.53 in 10.0 mi SE 4.6 mph - N/A   Overcast
4:54 PM 51.1 °F - 44.1 °F 77% 30.53 in 10.0 mi ESE 5.8 mph - N/A   Clear
5:54 PM 48.9 °F - 44.1 °F 83% 30.53 in 10.0 mi Calm Calm - N/A   Clear
6:54 PM 46.9 °F - 43.0 °F 86% 30.54 in 10.0 mi Calm Calm - N/A   Clear
7:54 PM 45.0 °F - 43.0 °F 93% 30.53 in 10.0 mi Calm Calm - N/A   Clear
8:54 PM 45.0 °F - 43.0 °F 93% 30.53 in 10.0 mi Calm Calm - N/A   Clear
9:54 PM 43.0 °F - 42.1 °F 97% 30.51 in 10.0 mi Calm Calm - N/A   Clear
10:54 PM 43.0 °F 41.3 °F 42.1 °F 97% 30.48 in 10.0 mi East 3.5 mph - N/A   Clear
11:54 PM 39.0 °F - 37.9 °F 96% 30.49 in 10.0 mi Calm Calm - N/A   Clear